When you browse on this site, cookies collect data to enhance your experience and personalize the content and advertising you see.
Visit our Privacy Policy to learn more. By continuing to use the site, you agree to this use of cookies and data.
  • In Österreich
  • Länderverzeichnis
  • Für 7 Tage
  • Wassertemperatur
  • Satellitenkarten
  • Wetterkarte
  • News
  • Widgets
  • user-avatar
    Anmelden

    Stündliche Wetter Sztok

    Heute, 10 Dezember, Montag

    Zeit Temperatur Niederschläge Wind Luftdruck Luftfeuchtigkeit
    00:00 +3°C° 0.1 mm 4 m/S 733 mmHg 92%
    01:00 +3°C° 0 mm 3 m/S 733 mmHg 94%
    02:00 +3°C° 0.2 mm 3 m/S 733 mmHg 93%
    03:00 +3°C° 0.2 mm 3 m/S 733 mmHg 93%
    04:00 +3°C° 0.2 mm 3 m/S 734 mmHg 92%
    05:00 +3°C° 0.3 mm 4 m/S 734 mmHg 89%
    06:00 +2°C° 0.3 mm 5 m/S 735 mmHg 86%
    07:00 +2°C° 0.3 mm 6 m/S 735 mmHg 82%
    08:00 +2°C° 0.2 mm 6 m/S 736 mmHg 79%
    09:00 +2°C° 0.2 mm 6 m/S 737 mmHg 76%
    10:00 +2°C° 0.2 mm 7 m/S 737 mmHg 73%
    11:00 +2°C° 0 mm 7 m/S 738 mmHg 71%
    12:00 +3°C° 0 mm 6 m/S 738 mmHg 68%
    13:00 +3°C° 0 mm 6 m/S 738 mmHg 66%
    14:00 +2°C° 0 mm 6 m/S 739 mmHg 68%
    15:00 +2°C° 0 mm 5 m/S 739 mmHg 70%
    16:00 +1°C° 0 mm 4 m/S 740 mmHg 72%
    17:00 +1°C° 0.1 mm 4 m/S 740 mmHg 74%
    18:00 +1°C° 0.1 mm 4 m/S 740 mmHg 76%
    19:00 0°C° 0.1 mm 4 m/S 740 mmHg 78%
    20:00 0°C° 0 mm 4 m/S 740 mmHg 80%
    21:00 -1°C° 0 mm 4 m/S 740 mmHg 83%
    22:00 -1°C° 0 mm 4 m/S 740 mmHg 85%
    23:00 -1°C° 0 mm 4 m/S 740 mmHg 87%

    Morgen, 11 Dezember, Dienstag

    Zeit Temperatur Niederschläge Wind Luftdruck Luftfeuchtigkeit
    00:00 -1°C° 0 mm 4 m/S 741 mmHg 88%
    01:00 -2°C° 0 mm 4 m/S 741 mmHg 90%
    02:00 -1°C° 0 mm 3 m/S 741 mmHg 91%
    03:00 -1°C° 0 mm 3 m/S 741 mmHg 91%
    04:00 -1°C° 0 mm 3 m/S 741 mmHg 92%
    05:00 -1°C° 0.2 mm 3 m/S 741 mmHg 92%
    06:00 -1°C° 0.2 mm 3 m/S 741 mmHg 92%
    07:00 -1°C° 0.2 mm 3 m/S 741 mmHg 92%
    08:00 0°C° 0.1 mm 3 m/S 742 mmHg 92%
    09:00 0°C° 0.1 mm 3 m/S 742 mmHg 91%
    10:00 +1°C° 0.1 mm 2 m/S 742 mmHg 90%
    11:00 +2°C° 0.1 mm 2 m/S 743 mmHg 90%
    12:00 +2°C° 0.1 mm 2 m/S 743 mmHg 89%
    13:00 +2°C° 0.1 mm 2 m/S 743 mmHg 89%
    14:00 +2°C° 0.2 mm 2 m/S 744 mmHg 90%
    15:00 +2°C° 0.2 mm 2 m/S 744 mmHg 92%
    16:00 +1°C° 0.2 mm 2 m/S 744 mmHg 93%
    17:00 +1°C° 0.2 mm 2 m/S 745 mmHg 93%
    18:00 +1°C° 0.2 mm 2 m/S 745 mmHg 94%
    19:00 +1°C° 0.2 mm 2 m/S 746 mmHg 94%
    20:00 -1°C° 0.1 mm 3 m/S 746 mmHg 94%
    21:00 -1°C° 0.1 mm 3 m/S 747 mmHg 94%
    22:00 -1°C° 0.1 mm 3 m/S 747 mmHg 93%
    23:00 -1°C° 0 mm 3 m/S 747 mmHg 93%

    übermorgen, 12 Dezember, Mittwoch

    Zeit Temperatur Niederschläge Wind Luftdruck Luftfeuchtigkeit
    00:00 -2°C° 0 mm 3 m/S 748 mmHg 93%
    01:00 -2°C° 0 mm 3 m/S 748 mmHg 93%
    02:00 -2°C° 0 mm 2 m/S 748 mmHg 93%
    03:00 -2°C° 0 mm 2 m/S 749 mmHg 93%
    04:00 -2°C° 0 mm 2 m/S 749 mmHg 93%
    05:00 -3°C° 0 mm 2 m/S 749 mmHg 93%
    06:00 -3°C° 0 mm 2 m/S 750 mmHg 92%
    07:00 -3°C° 0 mm 2 m/S 750 mmHg 92%
    08:00 -2°C° 0 mm 2 m/S 751 mmHg 90%
    09:00 -2°C° 0 mm 2 m/S 751 mmHg 87%
    10:00 -1°C° 0 mm 2 m/S 751 mmHg 85%
    11:00 -1°C° 0 mm 2 m/S 751 mmHg 84%
    12:00 +1°C° 0 mm 2 m/S 751 mmHg 83%
    13:00 +1°C° 0 mm 2 m/S 752 mmHg 81%
    14:00 -1°C° 0 mm 2 m/S 752 mmHg 84%
    15:00 -1°C° 0 mm 2 m/S 752 mmHg 87%
    16:00 -2°C° 0 mm 2 m/S 752 mmHg 91%
    17:00 -2°C° 0 mm 2 m/S 752 mmHg 91%
    18:00 -2°C° 0 mm 2 m/S 752 mmHg 92%
    19:00 -2°C° 0 mm 2 m/S 753 mmHg 93%
    20:00 -2°C° 0 mm 2 m/S 753 mmHg 93%
    21:00 -3°C° 0 mm 2 m/S 753 mmHg 94%
    22:00 -3°C° 0 mm 2 m/S 753 mmHg 94%
    23:00 -2°C° 0 mm 2 m/S 753 mmHg 94%

    13 Dezember, Donnerstag

    Zeit Temperatur Niederschläge Wind Luftdruck Luftfeuchtigkeit
    00:00 -2°C° 0 mm 2 m/S 753 mmHg 94%
    01:00 -2°C° 0 mm 2 m/S 753 mmHg 94%
    02:00 -2°C° 0 mm 2 m/S 753 mmHg 93%
    03:00 -2°C° 0 mm 2 m/S 753 mmHg 92%
    04:00 -2°C° 0 mm 2 m/S 753 mmHg 92%
    05:00 -2°C° 0 mm 2 m/S 753 mmHg 92%
    06:00 -2°C° 0 mm 2 m/S 753 mmHg 92%
    07:00 -2°C° 0 mm 2 m/S 752 mmHg 92%
    08:00 -2°C° 0 mm 3 m/S 753 mmHg 90%
    09:00 -1°C° 0 mm 3 m/S 753 mmHg 88%
    10:00 -1°C° 0 mm 3 m/S 753 mmHg 85%
    11:00 -1°C° 0 mm 3 m/S 752 mmHg 84%
    12:00 -1°C° 0 mm 3 m/S 752 mmHg 82%
    13:00 -1°C° 0 mm 3 m/S 752 mmHg 81%
    14:00 -1°C° 0 mm 3 m/S 752 mmHg 83%
    15:00 -1°C° 0 mm 2 m/S 752 mmHg 85%
    16:00 -2°C° 0 mm 2 m/S 752 mmHg 87%
    17:00 -2°C° 0 mm 2 m/S 752 mmHg 87%
    18:00 -2°C° 0 mm 2 m/S 752 mmHg 87%
    19:00 -2°C° 0 mm 2 m/S 752 mmHg 88%
    20:00 -2°C° 0 mm 2 m/S 753 mmHg 88%
    21:00 -2°C° 0 mm 2 m/S 753 mmHg 88%
    22:00 -2°C° 0 mm 2 m/S 753 mmHg 88%
    23:00 -2°C° 0 mm 2 m/S 753 mmHg 88%

    14 Dezember, Freitag

    Zeit Temperatur Niederschläge Wind Luftdruck Luftfeuchtigkeit
    00:00 -2°C° 0 mm 2 m/S 754 mmHg 88%
    01:00 -2°C° 0 mm 2 m/S 754 mmHg 88%
    02:00 -3°C° 0 mm 2 m/S 754 mmHg 89%
    03:00 -3°C° 0 mm 2 m/S 754 mmHg 90%
    04:00 -3°C° 0 mm 2 m/S 754 mmHg 92%
    05:00 -3°C° 0 mm 2 m/S 754 mmHg 91%
    06:00 -3°C° 0 mm 2 m/S 755 mmHg 91%
    07:00 -3°C° 0 mm 2 m/S 755 mmHg 91%
    08:00 -2°C° 0 mm 2 m/S 756 mmHg 89%
    09:00 -2°C° 0 mm 2 m/S 756 mmHg 88%
    10:00 -1°C° 0 mm 2 m/S 757 mmHg 87%
    11:00 -1°C° 0 mm 2 m/S 757 mmHg 86%
    12:00 -1°C° 0 mm 2 m/S 757 mmHg 85%
    13:00 -1°C° 0 mm 2 m/S 757 mmHg 85%
    14:00 -1°C° 0 mm 2 m/S 758 mmHg 87%
    15:00 -2°C° 0 mm 2 m/S 758 mmHg 90%
    16:00 -2°C° 0 mm 2 m/S 758 mmHg 92%
    17:00 -3°C° 0 mm 2 m/S 759 mmHg 92%
    18:00 -3°C° 0 mm 2 m/S 759 mmHg 93%
    19:00 -3°C° 0 mm 2 m/S 759 mmHg 93%
    20:00 -3°C° 0 mm 2 m/S 759 mmHg 93%
    21:00 -3°C° 0 mm 2 m/S 760 mmHg 93%
    22:00 -3°C° 0 mm 2 m/S 760 mmHg 93%
    23:00 -3°C° 0 mm 2 m/S 760 mmHg 93%

    15 Dezember, Samstag

    Zeit Temperatur Niederschläge Wind Luftdruck Luftfeuchtigkeit
    00:00 -3°C° 0 mm 2 m/S 760 mmHg 93%
    01:00 -3°C° 0 mm 2 m/S 761 mmHg 93%
    02:00 -3°C° 0 mm 2 m/S 761 mmHg 93%
    03:00 -3°C° 0 mm 2 m/S 761 mmHg 93%
    04:00 -3°C° 0 mm 2 m/S 761 mmHg 92%
    05:00 -3°C° 0 mm 2 m/S 761 mmHg 92%
    06:00 -3°C° 0 mm 2 m/S 762 mmHg 91%
    07:00 -3°C° 0 mm 2 m/S 762 mmHg 91%
    08:00 -2°C° 0 mm 2 m/S 762 mmHg 89%
    09:00 -2°C° 0 mm 2 m/S 762 mmHg 87%
    10:00 -2°C° 0 mm 2 m/S 763 mmHg 86%
    11:00 -2°C° 0 mm 3 m/S 763 mmHg 83%
    12:00 -1°C° 0 mm 3 m/S 763 mmHg 81%
    13:00 -1°C° 0 mm 3 m/S 763 mmHg 78%
    14:00 -2°C° 0 mm 3 m/S 763 mmHg 80%
    15:00 -2°C° 0 mm 2 m/S 763 mmHg 82%
    16:00 -3°C° 0 mm 2 m/S 763 mmHg 84%
    17:00 -3°C° 0 mm 2 m/S 763 mmHg 84%
    18:00 -3°C° 0 mm 2 m/S 763 mmHg 84%
    19:00 -3°C° 0 mm 2 m/S 764 mmHg 84%
    20:00 -4°C° 0 mm 2 m/S 764 mmHg 85%
    21:00 -5°C° 0 mm 3 m/S 764 mmHg 85%
    22:00 -5°C° 0 mm 3 m/S 764 mmHg 85%
    23:00 -5°C° 0 mm 3 m/S 764 mmHg 87%
    Mehr zeigen